[[{"header":{"parameterUnit":"m.s-1","parameterCategory":1,"la1":30.2991,"la2":30.254,"lo1":-89.0895,"lo2":-89.0444,"dy":0.0017,"dx":0.0017,"nx":28,"ny":28,"refTime":"2024-12-24T03:00:00:Z","depth":0,"parameterNumber":2,"parameterNumberName":"U-component_of_WINDS"},"data":[0,0,0,0,0,0,0,0,0,0,0,0,0,0,0,0,0,0,0,0,0,0,0,0,0,0,0,0,0,0,0,0,0,0,0,0,0,0,0,0,0,0,0,0,0,0,0,0,0,0,0,0,0,0,0,0,0,0,-5.0626,-5.0627,0,-5.0682,-5.0682,-5.0683,-5.0533,-5.0528,-5.0524,-5.0519,-5.0577,-5.0583,-5.0589,0,0,0,0,0,0,0,0,0,0,0,0,0,-5.0393,-5.0398,-5.0626,-5.0627,-5.0628,-5.0682,-5.0682,-5.0683,-5.0534,-5.0528,-5.0522,-5.0517,-5.0575,-5.0582,-5.0589,0,0,0,0,0,0,0,0,0,0,0,0,0,-5.0476,-5.04,-5.0626,-5.056,-5.0554,-5.0681,-5.0682,-5.0683,-5.0535,-5.0528,-5.0521,-5.0514,-5.0573,-5.0581,-5.059,-5.0785,0,0,-5.0617,-5.0621,0,0,0,0,0,0,0,0,-5.0472,-5.0485,-5.0569,-5.0565,-5.0559,-5.0593,-5.0621,-5.0717,-5.0537,-5.0542,-5.0519,-5.0511,-5.0588,-5.0595,-5.0621,-5.0787,-5.079,-5.0618,-5.0623,-5.0627,-5.063,0,0,0,0,0,0,0,-5.0466,-5.0482,-5.0648,-5.057,-5.0564,-5.0528,-5.0532,-5.0639,-5.0604,-5.0541,-5.0531,-5.0539,-5.0584,-5.0613,-5.0621,-5.0791,-5.0618,-5.0626,-5.0631,-5.0634,-5.112,-5.1127,0,0,0,0,0,0,-5.0469,-5.0478,-5.0646,-5.065,-5.0497,-5.0538,-5.0542,-5.0589,-5.0602,-5.0598,-5.0545,-5.0532,-5.0601,-5.0611,-5.0623,-5.0851,-5.0627,-5.0635,-5.064,-5.1112,-5.1122,-5.113,0,0,0,0,0,0,-5.0464,-5.0485,-5.0644,-5.0561,-5.0578,-5.0549,-5.0603,-5.0594,-5.0622,-5.0605,-5.0598,-5.0581,-5.0596,-5.061,-5.0746,-5.0851,-5.0639,-5.0647,-5.1103,-5.1115,-5.1126,-5.1311,0,0,0,0,0,0,-5.0458,-5.0484,-5.0558,-5.0564,-5.0583,-5.0766,-5.061,-5.06,-5.0638,-5.0621,-5.0637,-5.0633,-5.0592,-5.0733,-5.0754,-5.086,-5.0654,-5.1094,-5.1109,-5.1122,-5.1295,-5.1327,-5.1354,0,0,0,0,0,-5.045,-5.0608,-5.0562,-5.0583,-5.0674,-5.0772,-5.0784,-5.0733,-5.0647,-5.0721,-5.071,-5.0632,-5.0837,-5.0748,-5.0771,-5.0881,-5.1087,-5.1104,-5.1121,-5.1282,-5.1321,-5.1354,0,0,0,0,0,0,-5.0615,-5.0607,-5.0557,-5.072,-5.0748,-5.0747,-5.0838,-5.0776,-5.0829,-5.0811,-5.0747,-5.0752,-5.0899,-5.0903,-5.0805,-5.107,-5.0947,-5.097,-5.1061,-5.1098,-5.1128,-5.1123,-5.0662,0,0,0,0,0,-5.067,-5.075,-5.0739,-5.0885,-5.0901,-5.0868,-5.0909,-5.0868,-5.0894,-5.0905,-5.0903,-5.0933,-5.1003,-5.1051,-5.1115,-5.1295,-5.1296,-5.1382,-5.1411,-5.1436,-5.1456,-5.1552,-5.159,-5.1186,-5.1186,-5.1185,0,0,-5.0785,-5.0791,-5.0845,-5.0918,-5.0935,-5.102,-5.0879,-5.0974,-5.1037,-5.0919,-5.1047,-5.1048,-5.1075,-5.1234,-5.1304,-5.1242,-5.1568,-5.1458,-5.1477,-5.1484,-5.1573,-5.1612,-5.1646,-5.1197,-5.1195,-5.1194,0,0,-5.1038,-5.1051,-5.1173,-5.1193,-5.122,-5.1197,-5.1227,-5.1236,-5.1231,-5.1358,-5.1272,-5.1346,-5.1469,-5.1492,-5.1521,-5.1784,-5.1715,-5.1807,-5.1962,-5.2056,-5.2088,-5.2116,-5.221,-5.2245,-5.1827,-5.1828,-5.1828,0,-5.1178,-5.1301,-5.1244,-5.1346,-5.1381,-5.1279,-5.1403,-5.1425,-5.1473,-5.1499,-5.1429,-5.1582,-5.1593,-5.1756,-5.1821,-5.1847,-5.188,-5.1805,-5.2088,-5.2116,-5.2141,-5.223,-5.2265,-5.1839,-5.1837,-5.1836,-5.1835,0,-5.1472,-5.1559,-5.1655,-5.1703,-5.1749,-5.1862,-5.1822,-5.1876,-5.1831,-5.1816,-5.1947,-5.1957,-5.2022,-5.2058,-5.2015,-5.2216,-5.2176,-5.2099,-5.1974,-5.2191,-5.2274,-5.2307,-5.1854,-5.185,-5.1847,-5.1844,0,0,-5.1829,-5.1844,-5.1881,-5.1901,-5.1924,-5.1991,-5.21,-5.2163,-5.221,-5.2246,-5.2336,-5.2443,-5.2371,-5.2404,-5.2363,-5.2446,-5.2655,-5.2358,-5.2357,-5.2413,-5.2876,-5.2935,-5.2975,-5.2609,-5.2615,-5.262,-5.2874,0,-5.2078,-5.2263,-5.2216,-5.24,-5.2481,-5.2386,-5.248,-5.2505,-5.2495,-5.2561,-5.2549,-5.2626,-5.2526,-5.2545,-5.2623,-5.2613,-5.2747,-5.2594,-5.2692,-5.2696,-5.2688,-5.3018,-5.3079,-5.3318,-5.2906,-5.2911,-5.2915,0,-5.2393,-5.2441,-5.2634,-5.2645,-5.2677,-5.2763,-5.2817,-5.2882,-5.2909,-5.2895,-5.2933,-5.2875,-5.2983,-5.2859,-5.3006,-5.2904,-5.2941,-5.2943,-5.2951,-5.2958,-5.2819,-5.3034,-5.3393,-5.3429,-5.2966,-5.2962,-5.2958,0,-5.2634,-5.2747,-5.2877,-5.2898,-5.2914,-5.2977,-5.2986,-5.3006,-5.3047,-5.3095,-5.3122,-5.3182,-5.3215,-5.3263,-5.3224,-5.3137,-5.3379,-5.3251,-5.3371,-5.3372,-5.3425,-5.3422,-5.3796,-5.3451,-5.345,-5.345,-5.3449,0,-5.2916,-5.3038,-5.2986,-5.3066,-5.32,-5.3145,-5.3279,-5.3278,-5.3297,-5.3375,-5.3297,-5.3373,-5.3317,-5.3388,-5.3359,-5.3486,-5.3501,-5.3494,-5.3484,-5.35,-5.3502,-5.3524,-5.3506,-5.3459,-5.3457,-5.3455,-5.3454,0,-5.3207,-5.3177,-5.3313,-5.3317,-5.3321,-5.342,-5.3423,-5.3498,-5.3482,-5.3582,-5.3603,-5.3578,-5.3657,-5.3624,-5.3708,-5.3688,-5.3851,-5.382,-5.3842,-5.3834,-5.3956,-5.3945,-5.4356,-5.4407,-5.403,-5.4034,-5.4037,0,-5.3389,-5.3481,-5.3495,-5.3542,-5.3557,-5.3634,-5.3676,-5.3626,-5.3673,-5.3711,-5.3781,-5.3854,-5.391,-5.4042,-5.4031,-5.4096,-5.4065,-5.4205,-5.4074,-5.4088,-5.4067,-5.4062,-5.4071,-5.4231,-5.4236,-5.4239,-5.4242,0,-5.3716,-5.3697,-5.376,-5.3819,-5.3871,-5.3915,-5.3952,-5.3995,-5.3947,-5.4004,-5.4084,-5.4128,-5.4214,-5.4288,-5.4345,-5.4355,-5.4292,-5.4284,-5.4314,-5.4332,-5.4341,-5.4337,-5.3913,-5.4274,-5.4271,-5.4268,-5.4267,-5.4265,-5.3957,-5.4034,-5.4057,-5.413,-5.4153,-5.419,-5.426,-5.4253,-5.432,-5.4386,-5.4353,-5.4447,-5.4472,-5.4542,-5.4561,-5.4634,-5.4579,-5.4625,-5.4636,-5.4648,-5.4664,-5.433,-5.4645,-5.4644,-5.4643,-5.4642,-5.4641,0,-5.4279,-5.4289,-5.4357,-5.4412,-5.447,-5.4405,-5.4444,-5.4497,-5.458,-5.4609,-5.4666,-5.4759,-5.4831,-5.4827,-5.4893,-5.4952,-5.4925,-5.4971,-5.4966,-5.4969,-5.4709,-5.4675,-5.4992,-5.4992,-5.4992,-5.4992,-5.4992,-5.4992,-5.4453,-5.458,-5.4565,-5.4703,-5.4712,-5.4803,-5.4831,-5.4865,-5.4888,-5.4995,-5.5054,-5.5051,-5.5067,-5.5134,-5.5197,-5.5194,-5.5222,-5.5279,-5.5266,-5.5022,-5.4988,-5.4954,-5.4922,-5.5286,-5.5286,-5.552,-5.5522,-5.5523]},{"header":{"parameterUnit":"m.s-1","parameterCategory":1,"la1":30.2991,"la2":30.254,"lo1":-89.0895,"lo2":-89.0444,"dy":0.0017,"dx":0.0017,"nx":28,"ny":28,"refTime":"2024-12-24T03:00:00:Z","depth":0,"parameterNumber":3,"parameterNumberName":"V-component_of_WINDS"},"data":[0,0,0,0,0,0,0,0,0,0,0,0,0,0,0,0,0,0,0,0,0,0,0,0,0,0,0,0,0,0,0,0,0,0,0,0,0,0,0,0,0,0,0,0,0,0,0,0,0,0,0,0,0,0,0,0,0,0,-0.3435,-0.3436,0,-0.3496,-0.3497,-0.3497,-0.3515,-0.3514,-0.3514,-0.3514,-0.3579,-0.3581,-0.3583,0,0,0,0,0,0,0,0,0,0,0,0,0,-0.3335,-0.3337,-0.3435,-0.3436,-0.3437,-0.3496,-0.3497,-0.3497,-0.3515,-0.3514,-0.3514,-0.3513,-0.3578,-0.358,-0.3583,0,0,0,0,0,0,0,0,0,0,0,0,0,-0.3386,-0.3337,-0.3435,-0.3452,-0.3454,-0.3496,-0.3497,-0.3498,-0.3515,-0.3514,-0.3514,-0.3513,-0.3577,-0.358,-0.3583,-0.3613,0,0,-0.3593,-0.3594,0,0,0,0,0,0,0,0,-0.3383,-0.3389,-0.3449,-0.3451,-0.3453,-0.3497,-0.3485,-0.3536,-0.3515,-0.3492,-0.3513,-0.3513,-0.3552,-0.3557,-0.357,-0.3616,-0.3619,-0.3593,-0.3595,-0.3596,-0.3597,0,0,0,0,0,0,0,-0.3379,-0.3387,-0.3459,-0.345,-0.3453,-0.3457,-0.3464,-0.3495,-0.3524,-0.3494,-0.3495,-0.3502,-0.3553,-0.3567,-0.3572,-0.362,-0.3593,-0.3596,-0.3598,-0.3599,-0.3692,-0.3692,0,0,0,0,0,0,-0.3372,-0.3384,-0.3457,-0.3461,-0.3416,-0.346,-0.3467,-0.3484,-0.3524,-0.353,-0.3502,-0.3503,-0.3562,-0.3568,-0.3574,-0.3611,-0.3596,-0.3599,-0.3601,-0.3691,-0.3692,-0.3692,0,0,0,0,0,0,-0.337,-0.3379,-0.3455,-0.3423,-0.3433,-0.3462,-0.348,-0.3485,-0.3499,-0.353,-0.3536,-0.3511,-0.3562,-0.357,-0.3603,-0.3613,-0.36,-0.3603,-0.369,-0.3691,-0.3692,-0.3684,0,0,0,0,0,0,-0.3367,-0.3378,-0.3389,-0.3423,-0.3434,-0.3482,-0.3481,-0.3487,-0.3504,-0.3504,-0.354,-0.3545,-0.3562,-0.3598,-0.3606,-0.3617,-0.3606,-0.3689,-0.3691,-0.3692,-0.3684,-0.3685,-0.3686,0,0,0,0,0,-0.3364,-0.3385,-0.339,-0.3398,-0.3449,-0.3483,-0.3489,-0.3507,-0.3504,-0.3516,-0.3536,-0.3544,-0.361,-0.3601,-0.361,-0.3623,-0.3689,-0.369,-0.3692,-0.3683,-0.3685,-0.3686,0,0,0,0,0,0,-0.3354,-0.339,-0.3395,-0.3429,-0.3452,-0.3485,-0.3501,-0.3508,-0.3534,-0.3534,-0.3556,-0.3564,-0.3595,-0.3612,-0.3601,-0.3653,-0.365,-0.3653,-0.3641,-0.3642,-0.3643,-0.3639,-0.3608,0,0,0,0,0,-0.3355,-0.3379,-0.341,-0.3436,-0.3447,-0.3472,-0.3487,-0.3499,-0.3525,-0.3535,-0.3558,-0.3583,-0.3609,-0.3627,-0.3653,-0.3686,-0.3694,-0.3699,-0.37,-0.3701,-0.3703,-0.3722,-0.3724,-0.3697,-0.3697,-0.3697,0,0,-0.3359,-0.3382,-0.3396,-0.3434,-0.3454,-0.3478,-0.348,-0.3506,-0.3525,-0.3539,-0.3571,-0.3589,-0.3618,-0.3651,-0.3667,-0.3666,-0.3712,-0.3702,-0.3703,-0.3705,-0.3723,-0.3726,-0.3728,-0.3698,-0.3698,-0.3698,0,0,-0.3378,-0.3398,-0.3421,-0.3441,-0.347,-0.3485,-0.3491,-0.3523,-0.3534,-0.3567,-0.3578,-0.36,-0.3645,-0.3666,-0.3682,-0.3707,-0.3715,-0.3715,-0.3721,-0.3738,-0.374,-0.3742,-0.3751,-0.3754,-0.3717,-0.3717,-0.3717,0,-0.338,-0.3416,-0.3433,-0.3458,-0.3475,-0.3487,-0.3511,-0.3529,-0.3566,-0.3577,-0.3576,-0.3632,-0.3653,-0.3691,-0.3696,-0.3709,-0.3716,-0.3712,-0.3738,-0.3741,-0.3743,-0.3751,-0.3755,-0.3717,-0.3717,-0.3717,-0.3717,0,-0.3416,-0.3441,-0.3457,-0.349,-0.3508,-0.3533,-0.3554,-0.357,-0.358,-0.3596,-0.3628,-0.3653,-0.3684,-0.3694,-0.3704,-0.3733,-0.3732,-0.3734,-0.3732,-0.3745,-0.3753,-0.3757,-0.3717,-0.3717,-0.3717,-0.3717,0,0,-0.3433,-0.3474,-0.3479,-0.3494,-0.3526,-0.3546,-0.3571,-0.36,-0.3613,-0.3638,-0.3659,-0.3696,-0.3698,-0.3717,-0.3729,-0.3744,-0.3762,-0.3745,-0.3746,-0.3747,-0.3795,-0.3793,-0.3796,-0.3767,-0.3767,-0.3768,-0.3792,0,-0.3456,-0.35,-0.3515,-0.3552,-0.3575,-0.3586,-0.3608,-0.363,-0.3645,-0.3667,-0.3684,-0.371,-0.371,-0.3722,-0.3737,-0.3756,-0.3772,-0.3755,-0.3788,-0.3789,-0.378,-0.3801,-0.38,-0.3821,-0.3795,-0.3796,-0.3797,0,-0.349,-0.3513,-0.3552,-0.3579,-0.359,-0.3609,-0.3636,-0.3657,-0.3682,-0.3692,-0.3711,-0.3722,-0.3748,-0.3743,-0.378,-0.3768,-0.3783,-0.3794,-0.3795,-0.38,-0.3794,-0.3806,-0.3829,-0.3832,-0.3802,-0.3802,-0.3801,0,-0.3498,-0.3539,-0.3567,-0.3579,-0.3613,-0.3626,-0.364,-0.3665,-0.3681,-0.3705,-0.3715,-0.3742,-0.3757,-0.3778,-0.3796,-0.3791,-0.3831,-0.3828,-0.3841,-0.384,-0.385,-0.3849,-0.3875,-0.3858,-0.3858,-0.3858,-0.3857,0,-0.3524,-0.3547,-0.3571,-0.3588,-0.3614,-0.3631,-0.3657,-0.3672,-0.3693,-0.3714,-0.3726,-0.3745,-0.3767,-0.3789,-0.3803,-0.3831,-0.3838,-0.3847,-0.3851,-0.3847,-0.3845,-0.3857,-0.3856,-0.3858,-0.3858,-0.3858,-0.3858,0,-0.3538,-0.3555,-0.3586,-0.3614,-0.3622,-0.364,-0.3664,-0.3681,-0.3696,-0.3722,-0.3729,-0.3753,-0.3779,-0.3799,-0.3834,-0.3843,-0.3873,-0.3877,-0.3864,-0.3866,-0.3878,-0.3877,-0.3913,-0.3918,-0.3897,-0.3897,-0.3897,0,-0.3553,-0.3571,-0.36,-0.3614,-0.3628,-0.3651,-0.3667,-0.3684,-0.37,-0.3729,-0.3743,-0.3769,-0.3792,-0.3834,-0.3855,-0.3881,-0.3886,-0.3896,-0.389,-0.3885,-0.3886,-0.3885,-0.3887,-0.3898,-0.3898,-0.3898,-0.3898,0,-0.3578,-0.3585,-0.3607,-0.3632,-0.365,-0.3671,-0.3691,-0.3702,-0.3723,-0.3741,-0.3767,-0.3784,-0.3819,-0.3846,-0.3874,-0.3889,-0.3897,-0.39,-0.3904,-0.39,-0.3892,-0.3897,-0.3867,-0.3899,-0.3899,-0.3899,-0.3899,-0.3899,-0.3594,-0.361,-0.3632,-0.3656,-0.3673,-0.3692,-0.3709,-0.3725,-0.3747,-0.3775,-0.3784,-0.3812,-0.3835,-0.3873,-0.3889,-0.3911,-0.3911,-0.3918,-0.3919,-0.3921,-0.392,-0.3888,-0.3917,-0.3917,-0.3917,-0.3917,-0.3917,0,-0.362,-0.3634,-0.3656,-0.3684,-0.3702,-0.3706,-0.3729,-0.3744,-0.3768,-0.3789,-0.381,-0.384,-0.3866,-0.3887,-0.3914,-0.3927,-0.3932,-0.3934,-0.3933,-0.3937,-0.3919,-0.3913,-0.393,-0.393,-0.393,-0.393,-0.393,-0.393,-0.3636,-0.3663,-0.3672,-0.3707,-0.3722,-0.3748,-0.376,-0.3777,-0.3794,-0.3826,-0.3847,-0.386,-0.3882,-0.391,-0.3933,-0.3939,-0.3948,-0.395,-0.3956,-0.394,-0.3938,-0.3937,-0.3931,-0.3952,-0.3952,-0.3973,-0.3973,-0.3973]}]]